Weather History for Saranac Lake, NY

Change the Weather History Date:

Friday, July 18, 2014

  Actual Average Record
Temperature  
Mean Temperature 57 °F 64 °F  
Max Temperature 73 °F 76 °F 92 °F (1953)
Min Temperature 40 °F 51 °F 39 °F (1956)
Degree Days  
Heating Degree Days 9    
Cooling Degree Days 0 1  
Month to date cooling degree days 33 33  
Year to date cooling degree days 55 62  
Since 1 June cooling degree days 54 59  
Growing Degree Days 6 (Base 50)    
Moisture  
Dew Point 47 °F    
Average Humidity 71    
Maximum Humidity 100    
Minimum Humidity 41    
Precipitation  
Precipitation 0.00 in 0.13 in 1.29 in (2011)
Month to date precipitation 1.82 2.43  
Year to date precipitation 20.76 18.63  
Sea Level Pressure  
Sea Level Pressure 30.18 in    
Wind  
Wind Speed 3 mph (SW)    
Max Wind Speed 12 mph    
Max Gust Speed 16 mph    
Visibility 6 miles    
Events Fog    
T = Trace of Precipitation, MM = Missing Value Source: NWS Daily Summary

Daily Weather History Graph

Daily Weather History Graph

Search for Another Location

Airport:

Trip Planner

Search our weather history database for the weather conditions in past years. The results will help you decide how hot, cold, wet, or windy it might be!

Date:

Astronomy

Jul. 18, 2014 Rise Set
Actual Time 5:29 AM EDT 8:36 PM EDT
Civil Twilight 4:54 AM EDT 9:11 PM EDT
Nautical Twilight 4:09 AM EDT 9:55 PM EDT
Astronomical Twilight 3:14 AM EDT 10:49 PM EDT
Moon No Moon Rise 1:01 PM EDT (7/18)
Length of Visible Light 16h 16m
Length of Day
15h 06m
Waning Gibbous, 55% of the Moon is Illuminated
Jul 18
Waning Gibbous
Jul 18
Last Quarter
Jul 26
New
Aug 3
First Quarter
Aug 10
Full

Hourly Weather History & Observations

Time (EDT) Temp. Windchill Dew Point Humidity Pressure Visibility Wind Dir Wind Speed Gust Speed Precip Events Conditions
12:13 AM 48.0 °F - 48.0 °F 100% 30.12 in 0.8 mi Calm Calm - N/A   Mist
12:22 AM 48.0 °F - 46.9 °F 96% 30.12 in 0.5 mi Calm Calm - N/A Fog Fog
12:34 AM 48.0 °F - 46.9 °F 96% 30.12 in 1.2 mi Calm Calm - N/A   Scattered Clouds
12:51 AM 48.0 °F - 46.9 °F 96% 30.13 in 0.8 mi Calm Calm - N/A   Mist
1:01 AM 46.0 °F - 46.0 °F 100% 30.13 in 0.2 mi Calm Calm - N/A Fog Fog
1:07 AM 46.0 °F - 46.0 °F 100% 30.13 in 0.5 mi Calm Calm - N/A Fog Fog
1:15 AM 46.0 °F - 46.0 °F 100% 30.13 in 0.5 mi Calm Calm - N/A Fog Fog
1:23 AM 46.0 °F - 45.0 °F 96% 30.13 in 1.0 mi Calm Calm - N/A   Mist
1:29 AM 46.0 °F - 45.0 °F 96% 30.13 in 2.0 mi Calm Calm - N/A   Partly Cloudy
1:37 AM 46.0 °F - 45.0 °F 96% 30.13 in 1.0 mi Calm Calm - N/A   Mist
1:59 AM 45.0 °F - 45.0 °F 100% 30.13 in 1.5 mi Calm Calm - N/A   Partly Cloudy
2:19 AM 45.0 °F - 44.1 °F 97% 30.14 in 0.5 mi Calm Calm - N/A Fog Fog
2:25 AM 45.0 °F - 44.1 °F 97% 30.14 in 1.0 mi Calm Calm - N/A   Mist
2:33 AM 44.1 °F 42.5 °F 44.1 °F 100% 30.14 in 1.2 mi SSW 3.5 mph - N/A   Partly Cloudy
2:46 AM 42.8 °F - 42.8 °F 100% 30.14 in 0.8 mi Calm Calm - N/A   Mist
2:51 AM 44.1 °F - 43.0 °F 96% 30.15 in 1.0 mi Calm Calm - N/A   Clear
2:57 AM 45.0 °F - 44.1 °F 97% 30.14 in 4.0 mi Calm Calm - N/A   Clear
3:51 AM 42.1 °F - 41.0 °F 96% 30.16 in 10.0 mi Calm Calm - N/A   Clear
4:30 AM 42.1 °F - 41.0 °F 96% 30.16 in 2.0 mi Calm Calm - N/A   Clear
4:39 AM 41.0 °F - 41.0 °F 100% 30.16 in 9.0 mi Calm Calm - N/A   Clear
4:51 AM 39.9 °F - 39.9 °F 100% 30.18 in 10.0 mi Calm Calm - N/A   Clear
5:51 AM 39.9 °F - 39.9 °F 100% 30.20 in 10.0 mi Calm Calm - N/A   Clear
6:51 AM 46.9 °F - 46.0 °F 97% 30.21 in 10.0 mi Calm Calm - N/A   Clear
7:51 AM 55.0 °F - 53.1 °F 93% 30.22 in 10.0 mi Calm Calm - N/A   Clear
8:51 AM 60.1 °F - 54.0 °F 80% 30.24 in 10.0 mi SW 6.9 mph - N/A   Clear
9:51 AM 63.0 °F - 54.0 °F 72% 30.24 in 10.0 mi WSW 9.2 mph - N/A   Clear
10:51 AM 66.0 °F - 51.1 °F 59% 30.24 in 10.0 mi SW 9.2 mph - N/A   Clear
11:51 AM 69.1 °F - 46.9 °F 45% 30.23 in 10.0 mi Variable 4.6 mph - N/A   Partly Cloudy
12:51 PM 71.1 °F - 46.9 °F 42% 30.23 in 10.0 mi Calm Calm - N/A   Partly Cloudy
2:51 PM 73.0 °F - 48.0 °F 41% 30.22 in 10.0 mi SW 9.2 mph - N/A   Mostly Cloudy
3:51 PM 73.0 °F - 48.0 °F 41% 30.22 in 10.0 mi Variable 6.9 mph - N/A   Mostly Cloudy
5:51 PM 72.0 °F - 50.0 °F 46% 30.23 in 10.0 mi SW 9.2 mph - N/A   Mostly Cloudy
6:51 PM 71.1 °F - 52.0 °F 51% 30.22 in 10.0 mi Calm Calm - N/A   Clear
7:51 PM 66.9 °F - 52.0 °F 59% 30.23 in 10.0 mi Calm Calm - N/A   Clear
8:51 PM 57.0 °F - 54.0 °F 89% 30.25 in 10.0 mi Calm Calm - N/A   Clear
9:51 PM 53.1 °F - 51.1 °F 93% 30.26 in 10.0 mi Calm Calm - N/A   Clear
10:51 PM 51.1 °F - 48.9 °F 92% 30.27 in 9.0 mi Calm Calm - N/A   Clear